Burlington, VT

2:46 AM EDT on June 25, 2017 (GMT -0400)
Burlington International

Weather History for KBTV - December, 2012

Change the Weather History Date:

Sunday, December 9, 2012

  Actual Average Record
Temperature  
Mean Temperature 38 °F 29 °F  
Max Temperature 46 °F 36 °F 61 °F (1966)
Min Temperature 29 °F 22 °F -10 °F (1902)
Degree Days  
Heating Degree Days 27 36  
Month to date heating degree days 244 312  
Since 1 July heating degree days 1596 1857  
Cooling Degree Days 0 0  
Month to date cooling degree days 0 0  
Year to date cooling degree days 747 491  
Moisture  
Dew Point 27 °F    
Average Humidity 73    
Maximum Humidity 82    
Minimum Humidity 64    
Precipitation  
Precipitation 0.02 in 0.08 in 0.80 in (2014)
Month to date precipitation 0.63 0.78  
Year to date precipitation 33.27 35.22  
Snow  
Snow 0.20 in 0.50 in 5.70 in (1970)
Month to date snowfall 0.7 4.3  
Since 1 July snowfall 4.5 9.7  
Snow Depth 0.00 in    
Sea Level Pressure  
Sea Level Pressure 30.22 in    
Wind  
Wind Speed 7 mph (NNW)    
Max Wind Speed 18 mph    
Max Gust Speed 25 mph    
Visibility 9 miles    
Events Snow    
T = Trace of Precipitation, MM = Missing Value Source: NWS Daily Summary

Daily Weather History Graph

Daily Weather History Graph

Search for Another Location

Airport or City:

Trip Planner

Search our weather history database for the weather conditions in past years. The results will help you decide how hot, cold, wet, or windy it might be!

Date:

Astronomy

Dec. 09, 2012 Rise Set
Actual Time 7:17 AM EST 4:12 PM EST
Civil Twilight 6:44 AM EST 4:46 PM EST
Nautical Twilight 6:07 AM EST 5:22 PM EST
Astronomical Twilight 5:32 AM EST 5:57 PM EST
Moon 2:39 AM EST (12/9) 1:24 PM EST (12/9)
Length of Visible Light 10h 01m
Length of Day
8h 55m
Waning Crescent, 19% of the Moon is Illuminated
Dec 9
Waning Crescent
Dec 13
New
Dec 20
First Quarter
Dec 28
Full
Jan 4
Last Quarter

Hourly Weather History & Observations

Time (EST) Temp. Windchill Dew Point Humidity Pressure Visibility Wind Dir Wind Speed Gust Speed Precip Events Conditions
12:54 AM 43.0 °F 36.0 °F 35.1 °F 74% 30.02 in 10.0 mi WNW 13.8 mph - 0.00 in   Mostly Cloudy
1:54 AM 42.1 °F 36.1 °F 33.1 °F 70% 30.06 in 10.0 mi WNW 10.4 mph - N/A   Mostly Cloudy
2:54 AM 39.9 °F 32.9 °F 32.0 °F 73% 30.10 in 10.0 mi NW 11.5 mph 17.3 mph N/A   Overcast
3:54 AM 39.9 °F 35.1 °F 30.0 °F 68% 30.13 in 10.0 mi WNW 6.9 mph - N/A   Overcast
4:54 AM 39.0 °F 32.8 °F 30.0 °F 70% 30.16 in 10.0 mi WNW 9.2 mph - N/A   Overcast
5:09 AM 39.2 °F 33.0 °F 30.2 °F 70% 30.17 in 10.0 mi NNW 9.2 mph - N/A   Overcast
5:54 AM 37.0 °F 31.6 °F 30.0 °F 76% 30.20 in 10.0 mi NNW 6.9 mph - 0.00 in   Mostly Cloudy
6:54 AM 37.0 °F 34.5 °F 30.9 °F 79% 30.25 in 10.0 mi NW 3.5 mph - N/A   Mostly Cloudy
7:54 AM 34.0 °F 27.2 °F 28.0 °F 79% 30.29 in 10.0 mi North 8.1 mph - N/A   Mostly Cloudy
8:20 AM 33.8 °F 27.0 °F 26.6 °F 75% 30.29 in 10.0 mi North 8.1 mph - N/A   Scattered Clouds
8:54 AM 33.1 °F 26.1 °F 26.1 °F 75% 30.31 in 10.0 mi North 8.1 mph - N/A   Scattered Clouds
9:54 AM 34.0 °F 25.5 °F 25.0 °F 70% 30.33 in 10.0 mi NNE 11.5 mph - N/A   Partly Cloudy
10:54 AM 35.1 °F 27.9 °F 25.0 °F 67% 30.33 in 10.0 mi NE 9.2 mph - N/A   Scattered Clouds
11:54 AM 36.0 °F 29.6 °F 25.0 °F 64% 30.32 in 10.0 mi North 8.1 mph - N/A   Scattered Clouds
12:21 PM 35.6 °F 30.7 °F 24.8 °F 65% 30.30 in 10.0 mi NE 5.8 mph - N/A   Mostly Cloudy
12:54 PM 36.0 °F 30.3 °F 25.0 °F 64% 30.31 in 10.0 mi North 6.9 mph - N/A   Mostly Cloudy
1:31 PM 35.6 °F 29.2 °F 24.8 °F 65% 30.28 in 10.0 mi North 8.1 mph - N/A   Scattered Clouds
1:54 PM 35.1 °F 28.6 °F 24.1 °F 64% 30.28 in 10.0 mi North 8.1 mph - N/A   Partly Cloudy
2:54 PM 35.1 °F 28.6 °F 24.1 °F 64% 30.30 in 10.0 mi North 8.1 mph - N/A   Partly Cloudy
3:54 PM 30.9 °F 22.8 °F 23.0 °F 72% 30.33 in 10.0 mi NNW 9.2 mph - N/A   Scattered Clouds
4:54 PM 30.0 °F 23.2 °F 23.0 °F 75% 30.33 in 10.0 mi North 6.9 mph - N/A   Mostly Cloudy
5:54 PM 28.9 °F 22.8 °F 23.0 °F 78% 30.30 in 10.0 mi North 5.8 mph - N/A   Mostly Cloudy
6:54 PM 28.9 °F 23.9 °F 23.0 °F 78% 30.28 in 10.0 mi NNW 4.6 mph - N/A   Partly Cloudy
7:54 PM 30.0 °F 26.5 °F 24.1 °F 79% 30.26 in 10.0 mi North 3.5 mph - N/A   Mostly Cloudy
8:54 PM 30.0 °F 25.2 °F 24.1 °F 79% 30.22 in 10.0 mi NNW 4.6 mph - N/A   Overcast
9:54 PM 30.0 °F 25.2 °F 24.1 °F 79% 30.17 in 10.0 mi WNW 4.6 mph - N/A   Overcast
10:54 PM 30.0 °F - 25.0 °F 82% 30.13 in 10.0 mi Calm Calm - N/A   Overcast
11:21 PM 30.2 °F 25.4 °F 24.8 °F 80% 30.09 in 2.0 mi South 4.6 mph - 0.00 in Snow Light Snow
11:28 PM 30.2 °F 25.4 °F 24.8 °F 80% 30.08 in 1.2 mi South 4.6 mph - 0.00 in Snow Light Snow
11:46 PM 30.2 °F - 26.6 °F 86% 30.08 in 2.0 mi Calm Calm - 0.02 in Snow Light Snow
11:54 PM 30.0 °F - 27.0 °F 88% 30.08 in 2.0 mi Calm Calm - 0.02 in Snow Light Snow